Location: Borovka
(49.7741°N, 14.5280°E)
Time: 15:42:54
(UTC+00:00)

Thor Agena Rocket - Pass Details

Date: 18 February 2026
Orbit: 755 x 801 km, 99.1° (Epoch: 7 March)

Event Time Altitude Azimuth Distance (km) Brightness Sun altitude
Rises 18:11:59 0° 220° (SW) 3,237 7.3 -17.8°
Reaches altitude 10° 18:15:43 10° 248° (WSW) 2,328 7.0 -18.4°
Maximum altitude 18:17:56 13° 274° (W) 2,154 7.0 -18.7°
Drops below altitude 10° 18:20:09 10° 300° (WNW) 2,349 7.0 -19.1°
Sets 18:23:59 0° 328° (NNW) 3,296 7.3 -19.7°
